| time (UTC) | temp F | wind direction | speed knots | gust knots | rain 1hr in | rain 24hr in | rain mn in | humidity % | barometer mb |
| 20260509090043 | 50 | 212 | 6.1 | 12.2 | 0.00 | 0.00 | 0.00 | 52 | 998.4 |
| 20260509085310 | 50 | 210 | 6.1 | 11.3 | 0.00 | 0.00 | 0.00 | 53 | 998.4 |
| 20260509084810 | 50 | 200 | 6.1 | 8.7 | 0.00 | 0.00 | 0.00 | 53 | 998.5 |
| 20260509084310 | 50 | 212 | 4.3 | 8.7 | 0.00 | 0.00 | 0.00 | 53 | 998.7 |
| 20260509083809 | 50 | 236 | 5.2 | 9.6 | 0.00 | 0.00 | 0.00 | 53 | 998.8 |
| 20260509083310 | 50 | 204 | 4.3 | 9.6 | 0.00 | 0.00 | 0.00 | 53 | 998.8 |
| 20260509082812 | 49 | 228 | 4.3 | 9.6 | 0.00 | 0.00 | 0.00 | 54 | 999.0 |
| 20260509082309 | 50 | 224 | 4.3 | 10.4 | 0.00 | 0.00 | 0.00 | 54 | 999.1 |
| 20260509082050 | 50 | 200 | 4.3 | 12.2 | 0.00 | 0.00 | 0.00 | 54 | 999.1 |
| 20260509080808 | 50 | 213 | 3.5 | 7.8 | 0.00 | 0.00 | 0.00 | 54 | 999.2 |
| 20260509080309 | 50 | 238 | 2.6 | 9.6 | 0.00 | 0.00 | 0.00 | 55 | 999.3 |
| 20260509075809 | 49 | 199 | 5.2 | 9.6 | 0.00 | 0.00 | 0.00 | 55 | 999.4 |
| 20260509075308 | 49 | 175 | 3.5 | 10.4 | 0.00 | 0.00 | 0.00 | 56 | 999.4 |
| 20260509074822 | 49 | 207 | 5.2 | 10.4 | 0.00 | 0.00 | 0.00 | 57 | 999.6 |
| 20260509074307 | 49 | 212 | 5.2 | 8.7 | 0.00 | 0.00 | 0.00 | 58 | 999.6 |
| 20260509074038 | 48 | 206 | 3.5 | 7.8 | 0.00 | 0.00 | 0.00 | 59 | 999.7 |
| 20260509073308 | 48 | 213 | 4.3 | 7.8 | 0.00 | 0.00 | 0.00 | 59 | 999.7 |
| 20260509072807 | 48 | 207 | 3.5 | 8.7 | 0.00 | 0.00 | 0.00 | 60 | 999.8 |
| 20260509072309 | 48 | 204 | 5.2 | 8.7 | 0.00 | 0.00 | 0.00 | 61 | 1000.1 |
| 20260509071818 | 48 | 214 | 2.6 | 8.7 | 0.00 | 0.00 | 0.00 | 61 | 1000.2 |
| 20260509071308 | 47 | 240 | 3.5 | 8.7 | 0.00 | 0.00 | 0.00 | 61 | 1000.2 |
| 20260509070807 | 47 | 258 | 1.7 | 5.2 | 0.00 | 0.00 | 0.00 | 61 | 1000.3 |
| 20260509070307 | 47 | 200 | 4.3 | 7.8 | 0.00 | 0.00 | 0.00 | 63 | 1000.4 |
| 20260509065807 | 47 | 230 | 3.5 | 7.8 | 0.00 | 0.00 | 0.00 | 64 | 1000.3 |
| 20260509065306 | 46 | 189 | 2.6 | 7.8 | 0.00 | 0.00 | 0.00 | 67 | 1000.4 |
| 20260509064815 | 46 | 196 | 2.6 | 5.2 | 0.00 | 0.00 | 0.00 | 68 | 1000.4 |
| 20260509064306 | 46 | 158 | 1.7 | 3.5 | 0.00 | 0.00 | 0.00 | 69 | 1000.4 |
| 20260509063807 | 46 | 138 | 0.9 | 3.5 | 0.00 | 0.00 | 0.00 | 69 | 1000.6 |
| 20260509063307 | 46 | 161 | 0.9 | 4.3 | 0.00 | 0.00 | 0.00 | 70 | 1000.8 |
| 20260509062807 | 46 | 151 | 1.7 | 4.3 | 0.00 | 0.00 | 0.00 | 70 | 1000.9 |
| 20260509062306 | 46 | 140 | 1.7 | 3.5 | 0.00 | 0.00 | 0.00 | 69 | 1001.0 |
| 20260509061805 | 46 | 126 | 1.7 | 3.5 | 0.00 | 0.00 | 0.00 | 70 | 1001.3 |
| 20260509061307 | 46 | 145 | 1.7 | 3.5 | 0.00 | 0.00 | 0.00 | 70 | 1001.4 |
| 20260509061037 | 46 | 178 | 1.7 | 3.5 | 0.00 | 0.00 | 0.00 | 70 | 1001.5 |
| 20260509060305 | 46 | 185 | 1.7 | 3.5 | 0.00 | 0.00 | 0.00 | 70 | 1001.4 |
| 20260509055805 | 45 | 155 | 1.7 | 3.5 | 0.00 | 0.00 | 0.00 | 70 | 1001.5 |
| 20260509055307 | 45 | 162 | 1.7 | 2.6 | 0.00 | 0.00 | 0.00 | 70 | 1001.6 |
| 20260509054805 | 46 | 154 | 0.9 | 2.6 | 0.00 | 0.00 | 0.00 | 71 | 1001.7 |
| 20260509054306 | 46 | 162 | 1.7 | 2.6 | 0.00 | 0.00 | 0.00 | 70 | 1001.8 |
| 20260509054032 | 46 | 169 | 0.9 | 2.6 | 0.00 | 0.00 | 0.00 | 70 | 1001.8 |
| 20260509053304 | 46 | 166 | 0.9 | 2.6 | 0.00 | 0.00 | 0.00 | 69 | 1001.9 |
| 20260509052804 | 46 | 137 | 0.0 | 1.7 | 0.00 | 0.00 | 0.00 | 69 | 1001.9 |
| 20260509052307 | 47 | 135 | 0.9 | 1.7 | 0.00 | 0.00 | 0.00 | 68 | 1002.0 |
| 20260509051802 | 47 | 168 | 0.9 | 1.7 | 0.00 | 0.00 | 0.00 | 65 | 1002.1 |
| 20260509051302 | 47 | 193 | 0.9 | 1.7 | 0.00 | 0.00 | 0.00 | 64 | 1002.1 |
| 20260509050802 | 47 | 202 | 0.0 | 2.6 | 0.00 | 0.00 | 0.00 | 64 | 1002.1 |
| 20260509050302 | 47 | 207 | 0.0 | 4.3 | 0.00 | 0.00 | 0.00 | 63 | 1002.1 |
| 20260509045802 | 47 | 202 | 1.7 | 4.3 | 0.00 | 0.00 | 0.00 | 63 | 1002.2 |
| 20260509045306 | 47 | 195 | 0.9 | 5.2 | 0.00 | 0.00 | 0.00 | 63 | 1002.2 |
| 20260509044802 | 47 | 154 | 1.7 | 5.2 | 0.00 | 0.00 | 0.00 | 63 | 1002.1 |
| 20260509044530 | 47 | 185 | 1.7 | 5.2 | 0.00 | 0.00 | 0.00 | 62 | 1002.2 |
| 20260509043805 | 47 | 188 | 1.7 | 6.1 | 0.00 | 0.00 | 0.00 | 63 | 1002.3 |
| 20260509043535 | 47 | 162 | 3.5 | 6.1 | 0.00 | 0.00 | 0.00 | 62 | 1002.3 |
| 20260509042804 | 47 | 179 | 3.5 | 9.6 | 0.00 | 0.00 | 0.00 | 62 | 1002.3 |
| 20260509042301 | 47 | 185 | 5.2 | 9.6 | 0.00 | 0.00 | 0.00 | 61 | 1002.4 |
| 20260509041803 | 47 | 144 | 3.5 | 8.7 | 0.00 | 0.00 | 0.00 | 61 | 1002.5 |
| 20260509041542 | 47 | 166 | 4.3 | 8.7 | 0.00 | 0.00 | 0.00 | 61 | 1002.6 |
| 20260509040804 | 47 | 176 | 3.5 | 8.7 | 0.00 | 0.00 | 0.00 | 61 | 1002.6 |
| 20260509040303 | 47 | 202 | 3.5 | 9.6 | 0.00 | 0.00 | 0.00 | 61 | 1002.7 |
| 20260509035802 | 47 | 196 | 4.3 | 9.6 | 0.00 | 0.00 | 0.00 | 62 | 1002.7 |
| 20260509035533 | 47 | 149 | 4.3 | 8.7 | 0.00 | 0.00 | 0.00 | 62 | 1002.8 |
| 20260509035039 | 47 | 196 | 3.5 | 6.1 | 0.00 | 0.00 | 0.00 | 62 | 1002.9 |
| 20260509034522 | 47 | 189 | 2.6 | 6.1 | 0.00 | 0.00 | 0.00 | 62 | 1003.0 |
| 20260509034028 | 47 | 175 | 3.5 | 6.1 | 0.00 | 0.00 | 0.00 | 62 | 1003.0 |
| 20260509033252 | 47 | 182 | 3.5 | 5.2 | 0.00 | 0.00 | 0.00 | 63 | 1003.1 |
| 20260509032753 | 47 | 161 | 3.5 | 7.8 | 0.00 | 0.00 | 0.00 | 62 | 1003.2 |
| 20260509032247 | 47 | 213 | 2.6 | 7.8 | 0.00 | 0.00 | 0.00 | 62 | 1003.2 |
| 20260509032021 | 47 | 192 | 2.6 | 7.8 | 0.00 | 0.00 | 0.00 | 63 | 1003.2 |
| 20260509031247 | 47 | 151 | 2.6 | 6.1 | 0.00 | 0.00 | 0.00 | 64 | 1003.3 |
| 20260509031022 | 47 | 165 | 3.5 | 6.1 | 0.00 | 0.00 | 0.00 | 65 | 1003.4 |
| 20260509030246 | 47 | 158 | 3.5 | 6.1 | 0.00 | 0.00 | 0.00 | 65 | 1003.5 |
| 20260509025746 | 47 | 172 | 3.5 | 6.1 | 0.00 | 0.00 | 0.00 | 65 | 1003.7 |
| 20260509025246 | 47 | 162 | 4.3 | 6.1 | 0.00 | 0.00 | 0.00 | 65 | 1003.8 |
| 20260509024745 | 46 | 202 | 2.6 | 7.8 | 0.00 | 0.00 | 0.00 | 65 | 1003.7 |
| 20260509024244 | 46 | 199 | 3.5 | 7.8 | 0.00 | 0.00 | 0.00 | 66 | 1003.7 |
| 20260509023744 | 46 | 171 | 1.7 | 5.2 | 0.00 | 0.00 | 0.00 | 67 | 1003.8 |
| 20260509023241 | 46 | 192 | 2.6 | 6.1 | 0.00 | 0.00 | 0.00 | 68 | 1003.8 |
| 20260509022740 | 45 | 192 | 4.3 | 6.1 | 0.00 | 0.00 | 0.00 | 68 | 1003.9 |
| 20260509021739 | 45 | 166 | 3.5 | 5.2 | 0.00 | 0.00 | 0.00 | 70 | 1003.9 |
| 20260509021239 | 45 | 200 | 1.7 | 4.3 | 0.00 | 0.00 | 0.00 | 69 | 1003.9 |
| 20260509021008 | 45 | 182 | 1.7 | 4.3 | 0.00 | 0.00 | 0.00 | 69 | 1003.9 |
| 20260509020241 | 45 | 186 | 1.7 | 3.5 | 0.00 | 0.00 | 0.00 | 69 | 1003.9 |
| 20260509015725 | 45 | 179 | 1.7 | 3.5 | 0.00 | 0.00 | 0.00 | 68 | 1003.9 |
| 20260509015224 | 45 | 162 | 1.7 | 3.5 | 0.00 | 0.00 | 0.00 | 67 | 1003.9 |
| 20260509014719 | 45 | 151 | 1.7 | 3.5 | 0.00 | 0.00 | 0.00 | 67 | 1003.8 |
| 20260509014219 | 45 | 166 | 1.7 | 4.3 | 0.00 | 0.00 | 0.00 | 67 | 1003.9 |
| 20260509013718 | 45 | 155 | 2.6 | 4.3 | 0.00 | 0.00 | 0.00 | 67 | 1003.9 |
| 20260509013215 | 45 | 168 | 2.6 | 3.5 | 0.00 | 0.00 | 0.00 | 67 | 1003.9 |
| 20260509012714 | 45 | 161 | 1.7 | 3.5 | 0.00 | 0.00 | 0.00 | 66 | 1003.9 |
| 20260509012440 | 45 | 155 | 1.7 | 3.5 | 0.00 | 0.00 | 0.00 | 66 | 1003.8 |
| 20260509011711 | 45 | 188 | 0.9 | 3.5 | 0.00 | 0.00 | 0.00 | 66 | 1003.8 |
| 20260509011212 | 46 | 157 | 1.7 | 3.5 | 0.00 | 0.00 | 0.00 | 66 | 1003.8 |
| 20260509010710 | 46 | 158 | 1.7 | 2.6 | 0.00 | 0.00 | 0.00 | 65 | 1003.7 |
| 20260509010214 | 46 | 151 | 1.7 | 4.3 | 0.00 | 0.00 | 0.00 | 65 | 1003.7 |
| 20260509005757 | 46 | 144 | 1.7 | 3.5 | 0.00 | 0.00 | 0.00 | 64 | 1003.7 |
| 20260509005031 | 47 | 137 | 0.9 | 3.5 | 0.00 | 0.00 | 0.00 | 64 | 1003.5 |
| 20260509004532 | 47 | 144 | 1.7 | 4.3 | 0.00 | 0.00 | 0.00 | 64 | 1003.7 |
| 20260509004031 | 47 | 134 | 0.9 | 4.3 | 0.00 | 0.00 | 0.00 | 65 | 1003.7 |
| 20260509003530 | 47 | 141 | 1.7 | 3.5 | 0.00 | 0.00 | 0.00 | 66 | 1003.5 |
| 20260509003027 | 47 | 141 | 0.9 | 4.3 | 0.00 | 0.00 | 0.00 | 68 | 1003.5 |
| 20260509002526 | 47 | 121 | 0.9 | 4.3 | 0.00 | 0.00 | 0.00 | 71 | 1003.5 |
| 20260509002027 | 46 | 127 | 1.7 | 3.5 | 0.00 | 0.00 | 0.00 | 75 | 1003.5 |
| 20260509001527 | 45 | 131 | 1.7 | 4.3 | 0.00 | 0.00 | 0.00 | 81 | 1003.5 |
| 20260509001026 | 44 | 137 | 2.6 | 4.3 | 0.00 | 0.00 | 0.00 | 86 | 1003.5 |
| 20260509000526 | 44 | 154 | 1.7 | 3.5 | 0.00 | 0.00 | 0.00 | 87 | 1003.7 |
| 20260509000020 | 44 | 96 | 0.0 | 2.6 | 0.00 | 0.00 | 0.00 | 87 | 1003.7 |
| 20260508235736 | 44 | 85 | 1.7 | 2.6 | 0.00 | 0.00 | 0.00 | 87 | 1003.7 |
| 20260508235008 | 43 | 85 | 0.9 | 2.6 | 0.00 | 0.00 | 0.00 | 87 | 1003.7 |
| 20260508234231 | 43 | 99 | 1.7 | 2.6 | 0.00 | 0.00 | 0.00 | 86 | 1003.9 |
| 20260508233503 | 43 | 75 | 0.9 | 2.6 | 0.00 | 0.00 | 0.00 | 86 | 1004.0 |
| 20260508233004 | 43 | 86 | 0.9 | 3.5 | 0.00 | 0.00 | 0.00 | 85 | 1003.9 |
| 20260508232503 | 43 | 87 | 1.7 | 3.5 | 0.00 | 0.00 | 0.00 | 85 | 1004.0 |
| 20260508232004 | 43 | 72 | 1.7 | 3.5 | 0.00 | 0.00 | 0.00 | 85 | 1004.0 |
| 20260508231504 | 44 | 80 | 1.7 | 5.2 | 0.00 | 0.00 | 0.00 | 84 | 1004.0 |
| 20260508231002 | 44 | 102 | 1.7 | 5.2 | 0.00 | 0.00 | 0.00 | 84 | 1004.0 |
| 20260508230504 | 44 | 110 | 2.6 | 6.1 | 0.00 | 0.00 | 0.00 | 83 | 1004.0 |
| 20260508230004 | 44 | 95 | 3.5 | 6.1 | 0.00 | 0.00 | 0.00 | 82 | 1004.0 |
| 20260508225503 | 44 | 86 | 3.5 | 5.2 | 0.00 | 0.00 | 0.00 | 83 | 1004.1 |
| 20260508225004 | 45 | 62 | 3.5 | 5.2 | 0.00 | 0.00 | 0.00 | 82 | 1004.1 |
| 20260508224503 | 45 | 75 | 3.5 | 5.2 | 0.00 | 0.00 | 0.00 | 81 | 1004.2 |
| 20260508224006 | 45 | 104 | 3.5 | 6.1 | 0.00 | 0.00 | 0.00 | 81 | 1004.2 |
| 20260508223503 | 45 | 76 | 4.3 | 6.1 | 0.00 | 0.00 | 0.00 | 81 | 1004.2 |
| 20260508222958 | 45 | 89 | 1.7 | 7.8 | 0.00 | 0.00 | 0.00 | 81 | 1004.2 |
| 20260508222724 | 45 | 86 | 3.5 | 8.7 | 0.00 | 0.00 | 0.00 | 80 | 1004.2 |
| 20260508221958 | 45 | 126 | 3.5 | 8.7 | 0.00 | 0.00 | 0.00 | 79 | 1004.2 |
| 20260508221454 | 45 | 78 | 4.3 | 8.7 | 0.00 | 0.00 | 0.00 | 78 | 1004.2 |
| 20260508220954 | 46 | 110 | 2.6 | 6.1 | 0.00 | 0.00 | 0.00 | 78 | 1004.4 |
| 20260508220454 | 46 | 82 | 3.5 | 6.1 | 0.00 | 0.00 | 0.00 | 77 | 1004.3 |
| 20260508215955 | 47 | 79 | 5.2 | 6.1 | 0.00 | 0.00 | 0.00 | 77 | 1004.3 |
| 20260508215454 | 47 | 83 | 3.5 | 7.8 | 0.00 | 0.00 | 0.00 | 76 | 1004.4 |
| 20260508214954 | 47 | 92 | 5.2 | 7.8 | 0.00 | 0.00 | 0.00 | 78 | 1004.4 |
| 20260508214451 | 47 | 86 | 5.2 | 7.8 | 0.00 | 0.00 | 0.00 | 77 | 1004.4 |
| 20260508213951 | 47 | 75 | 4.3 | 9.6 | 0.00 | 0.00 | 0.00 | 78 | 1004.5 |
| 20260508213718 | 46 | 66 | 3.5 | 11.3 | 0.00 | 0.00 | 0.00 | 77 | 1004.4 |
| 20260508213220 | 46 | 103 | 5.2 | 11.3 | 0.00 | 0.00 | 0.00 | 76 | 1004.4 |
| 20260508212450 | 46 | 93 | 6.1 | 9.6 | 0.00 | 0.00 | 0.00 | 75 | 1004.4 |
| 20260508211950 | 46 | 96 | 3.5 | 8.7 | 0.00 | 0.00 | 0.00 | 75 | 1004.5 |
| 20260508211453 | 47 | 110 | 5.2 | 8.7 | 0.00 | 0.00 | 0.00 | 75 | 1004.5 |
| 20260508210950 | 47 | 54 | 4.3 | 7.8 | 0.00 | 0.00 | 0.00 | 75 | 1004.5 |
| 20260508210717 | 47 | 71 | 4.3 | 7.8 | 0.00 | 0.00 | 0.00 | 76 | 1004.6 |
| 20260508205950 | 46 | 75 | 3.5 | 7.8 | 0.00 | 0.00 | 0.00 | 75 | 1004.6 |
| 20260508205449 | 46 | 80 | 4.3 | 8.7 | 0.00 | 0.00 | 0.00 | 75 | 1004.6 |
| 20260508204950 | 46 | 75 | 4.3 | 9.6 | 0.00 | 0.00 | 0.00 | 74 | 1004.7 |
| 20260508204450 | 47 | 59 | 5.2 | 9.6 | 0.00 | 0.00 | 0.00 | 73 | 1004.8 |
| 20260508203950 | 47 | 72 | 2.6 | 7.8 | 0.00 | 0.00 | 0.00 | 75 | 1004.7 |
| 20260508202948 | 47 | 76 | 5.2 | 9.6 | 0.00 | 0.00 | 0.00 | 72 | 1004.6 |
| 20260508202448 | 48 | 92 | 4.3 | 9.6 | 0.00 | 0.00 | 0.00 | 72 | 1004.6 |
| 20260508201949 | 48 | 79 | 5.2 | 9.6 | 0.00 | 0.00 | 0.00 | 73 | 1004.5 |
| 20260508201451 | 48 | 71 | 5.2 | 9.6 | 0.00 | 0.00 | 0.00 | 73 | 1004.5 |
| 20260508200949 | 48 | 45 | 5.2 | 9.6 | 0.00 | 0.00 | 0.00 | 76 | 1004.7 |
| 20260508200450 | 48 | 61 | 4.3 | 9.6 | 0.00 | 0.00 | 0.00 | 73 | 1004.6 |
| 20260508195950 | 48 | 93 | 5.2 | 10.4 | 0.00 | 0.00 | 0.00 | 72 | 1004.7 |
| 20260508195448 | 48 | 93 | 3.5 | 11.3 | 0.00 | 0.00 | 0.00 | 71 | 1004.9 |
| 20260508194948 | 48 | 102 | 7.8 | 11.3 | 0.00 | 0.00 | 0.00 | 70 | 1004.7 |
| 20260508194447 | 48 | 103 | 6.1 | 12.2 | 0.00 | 0.00 | 0.00 | 71 | 1004.8 |
| 20260508193948 | 48 | 75 | 7.0 | 12.2 | 0.00 | 0.00 | 0.00 | 71 | 1005.0 |
| 20260508193447 | 48 | 100 | 7.0 | 10.4 | 0.00 | 0.00 | 0.00 | 70 | 1004.9 |
| 20260508192947 | 47 | 87 | 5.2 | 11.3 | 0.00 | 0.00 | 0.00 | 72 | 1005.1 |
| 20260508192447 | 47 | 117 | 3.5 | 11.3 | 0.00 | 0.00 | 0.00 | 71 | 1005.0 |
| 20260508191946 | 48 | 92 | 6.1 | 9.6 | 0.00 | 0.00 | 0.00 | 72 | 1005.1 |
| 20260508191446 | 47 | 102 | 4.3 | 9.6 | 0.00 | 0.00 | 0.00 | 73 | 1005.2 |
| 20260508190947 | 47 | 65 | 5.2 | 9.6 | 0.00 | 0.00 | 0.00 | 74 | 1005.3 |
| 20260508190447 | 47 | 55 | 4.3 | 10.4 | 0.00 | 0.00 | 0.00 | 74 | 1005.3 |
| 20260508185947 | 47 | 145 | 5.2 | 10.4 | 0.00 | 0.00 | 0.00 | 73 | 1005.3 |
| 20260508185447 | 47 | 103 | 5.2 | 9.6 | 0.00 | 0.00 | 0.00 | 73 | 1005.3 |
| 20260508184946 | 47 | 92 | 3.5 | 9.6 | 0.00 | 0.00 | 0.00 | 73 | 1005.5 |
| 20260508184445 | 47 | 92 | 5.2 | 9.6 | 0.00 | 0.00 | 0.00 | 74 | 1005.4 |
| 20260508183946 | 47 | 75 | 4.3 | 9.6 | 0.00 | 0.00 | 0.00 | 74 | 1005.5 |
| 20260508183458 | 47 | 78 | 5.2 | 9.6 | 0.00 | 0.00 | 0.00 | 73 | 1005.6 |
| 20260508182945 | 47 | 87 | 6.1 | 9.6 | 0.00 | 0.00 | 0.00 | 75 | 1005.7 |
| 20260508182445 | 47 | 89 | 5.2 | 10.4 | 0.00 | 0.00 | 0.00 | 76 | 1005.7 |
| 20260508181945 | 47 | 114 | 5.2 | 10.4 | 0.00 | 0.00 | 0.00 | 75 | 1005.7 |
| 20260508181444 | 46 | 69 | 5.2 | 10.4 | 0.00 | 0.00 | 0.00 | 75 | 1005.8 |
| 20260508180944 | 46 | 75 | 6.1 | 10.4 | 0.00 | 0.00 | 0.00 | 75 | 1005.8 |
| 20260508180447 | 46 | 86 | 5.2 | 10.4 | 0.00 | 0.00 | 0.00 | 74 | 1005.9 |
| 20260508175944 | 46 | 116 | 5.2 | 11.3 | 0.00 | 0.00 | 0.00 | 74 | 1005.9 |
| 20260508175444 | 46 | 107 | 5.2 | 12.2 | 0.00 | 0.00 | 0.00 | 74 | 1006.1 |
| 20260508174945 | 46 | 107 | 7.0 | 12.2 | 0.00 | 0.00 | 0.00 | 74 | 1006.1 |
| 20260508174444 | 46 | 92 | 4.3 | 9.6 | 0.00 | 0.00 | 0.00 | 75 | 1006.2 |
| 20260508173945 | 45 | 89 | 4.3 | 10.4 | 0.00 | 0.00 | 0.00 | 76 | 1006.3 |
| 20260508173443 | 45 | 85 | 5.2 | 10.4 | 0.00 | 0.00 | 0.00 | 73 | 1006.4 |
| 20260508172943 | 46 | 87 | 7.0 | 11.3 | 0.00 | 0.00 | 0.00 | 72 | 1006.4 |
| 20260508172443 | 46 | 99 | 6.1 | 11.3 | 0.00 | 0.00 | 0.00 | 73 | 1006.4 |
| 20260508171943 | 46 | 86 | 5.2 | 10.4 | 0.00 | 0.00 | 0.00 | 74 | 1006.6 |
| 20260508171443 | 45 | 114 | 6.1 | 9.6 | 0.00 | 0.00 | 0.00 | 73 | 1006.5 |
| 20260508170943 | 45 | 79 | 5.2 | 9.6 | 0.00 | 0.00 | 0.00 | 76 | 1006.5 |
| 20260508170442 | 44 | 66 | 5.2 | 9.6 | 0.00 | 0.00 | 0.00 | 75 | 1006.5 |
| 20260508170002 | 44 | 110 | 6.1 | 9.6 | 0.00 | 0.00 | 0.00 | 74 | 1006.6 |
| 20260508165457 | 45 | 123 | 5.2 | 9.6 | 0.00 | 0.00 | 0.00 | 75 | 1006.6 |
| 20260508165207 | 44 | 68 | 2.6 | 7.8 | 0.00 | 0.00 | 0.00 | 76 | 1006.7 |
| 20260508164441 | 44 | 106 | 4.3 | 7.8 | 0.00 | 0.00 | 0.00 | 76 | 1006.7 |
| 20260508163940 | 44 | 96 | 4.3 | 7.8 | 0.00 | 0.00 | 0.00 | 76 | 1006.8 |
| 20260508163437 | 44 | 99 | 1.7 | 8.7 | 0.00 | 0.00 | 0.00 | 75 | 1006.7 |
| 20260508162938 | 44 | 100 | 4.3 | 8.7 | 0.00 | 0.00 | 0.00 | 74 | 1006.7 |
| 20260508162438 | 45 | 62 | 4.3 | 9.6 | 0.00 | 0.00 | 0.00 | 74 | 1006.8 |
| 20260508161938 | 45 | 97 | 5.2 | 9.6 | 0.00 | 0.00 | 0.00 | 74 | 1006.8 |
| 20260508161438 | 45 | 107 | 4.3 | 8.7 | 0.00 | 0.00 | 0.00 | 74 | 1006.7 |
| 20260508160951 | 45 | 79 | 5.2 | 8.7 | 0.00 | 0.00 | 0.00 | 72 | 1006.8 |
| 20260508155938 | 46 | 89 | 6.1 | 8.7 | 0.00 | 0.00 | 0.00 | 70 | 1006.8 |
| 20260508155437 | 46 | 34 | 3.5 | 6.1 | 0.00 | 0.00 | 0.00 | 70 | 1006.9 |
| 20260508155206 | 47 | 117 | 2.6 | 6.1 | 0.00 | 0.00 | 0.00 | 73 | 1007.0 |
| 20260508154534 | 46 | 76 | 3.5 | 7.8 | 0.00 | 0.00 | 0.00 | 72 | 1007.1 |
| 20260508154521 | 47 | 95 | 3.5 | 7.8 | 0.00 | 0.00 | 0.00 | 72 | 1007.0 |
| 20260508153610 | 46 | 93 | 2.6 | 5.2 | 0.00 | 0.00 | 0.00 | 73 | 1007.2 |
| 20260508153029 | 45 | 118 | 1.7 | 5.2 | 0.00 | 0.00 | 0.00 | 76 | 1007.2 |
| 20260508152435 | 45 | 76 | 3.5 | 6.1 | 0.00 | 0.00 | 0.00 | 74 | 1007.2 |
| 20260508151936 | 45 | 89 | 2.6 | 6.1 | 0.00 | 0.00 | 0.00 | 73 | 1007.3 |
| 20260508151436 | 46 | 73 | 3.5 | 5.2 | 0.00 | 0.00 | 0.00 | 75 | 1007.3 |
| 20260508150935 | 46 | 110 | 4.3 | 6.1 | 0.00 | 0.00 | 0.00 | 74 | 1007.3 |
| 20260508150435 | 46 | 48 | 3.5 | 6.1 | 0.00 | 0.00 | 0.00 | 73 | 1007.3 |
| 20260508145934 | 46 | 54 | 3.5 | 6.1 | 0.00 | 0.00 | 0.00 | 73 | 1007.3 |
| 20260508145700 | 46 | 56 | 1.7 | 6.1 | 0.00 | 0.00 | 0.00 | 73 | 1007.4 |
| 20260508144935 | 45 | 68 | 3.5 | 6.1 | 0.00 | 0.00 | 0.00 | 72 | 1007.3 |
| 20260508144706 | 45 | 62 | 4.3 | 5.2 | 0.00 | 0.00 | 0.00 | 71 | 1007.3 |
| 20260508143932 | 45 | 54 | 2.6 | 6.1 | 0.00 | 0.00 | 0.00 | 71 | 1007.4 |
| 20260508143432 | 45 | 51 | 3.5 | 6.1 | 0.00 | 0.00 | 0.00 | 71 | 1007.4 |
| 20260508142933 | 45 | 86 | 4.3 | 6.1 | 0.00 | 0.00 | 0.00 | 71 | 1007.3 |
| 20260508142431 | 45 | 76 | 5.2 | 6.1 | 0.00 | 0.00 | 0.00 | 70 | 1007.4 |
| 20260508141933 | 46 | 90 | 3.5 | 6.1 | 0.00 | 0.00 | 0.00 | 70 | 1007.5 |
| 20260508141431 | 46 | 76 | 4.3 | 6.1 | 0.00 | 0.00 | 0.00 | 68 | 1007.5 |
| 20260508140931 | 47 | 109 | 4.3 | 5.2 | 0.00 | 0.00 | 0.00 | 68 | 1007.5 |
| 20260508140656 | 47 | 65 | 1.7 | 6.1 | 0.00 | 0.00 | 0.00 | 67 | 1007.5 |
| 20260508135931 | 47 | 56 | 3.5 | 6.1 | 0.00 | 0.00 | 0.00 | 67 | 1007.5 |
| 20260508135430 | 47 | 45 | 3.5 | 6.1 | 0.00 | 0.00 | 0.00 | 66 | 1007.6 |
| 20260508134929 | 47 | 30 | 2.6 | 6.1 | 0.00 | 0.00 | 0.00 | 65 | 1007.6 |
| 20260508134429 | 47 | 281 | 1.7 | 6.1 | 0.00 | 0.00 | 0.00 | 65 | 1007.6 |
| 20260508133929 | 47 | 299 | 1.7 | 5.2 | 0.00 | 0.00 | 0.00 | 66 | 1007.7 |
| 20260508133700 | 47 | 307 | 1.7 | 9.6 | 0.00 | 0.00 | 0.00 | 67 | 1007.7 |
| 20260508132926 | 47 | 254 | 2.6 | 10.4 | 0.00 | 0.00 | 0.00 | 65 | 1007.7 |
| 20260508132427 | 47 | 259 | 1.7 | 11.3 | 0.00 | 0.00 | 0.00 | 65 | 1007.8 |
| 20260508131928 | 47 | 278 | 6.1 | 11.3 | 0.00 | 0.00 | 0.00 | 67 | 1007.8 |
| 20260508131425 | 47 | 283 | 4.3 | 10.4 | 0.00 | 0.00 | 0.00 | 67 | 1007.8 |
| 20260508130924 | 47 | 257 | 5.2 | 8.7 | 0.00 | 0.00 | 0.00 | 69 | 1007.8 |
| 20260508130424 | 46 | 271 | 1.7 | 4.3 | 0.00 | 0.00 | 0.00 | 69 | 1007.7 |
| 20260508125923 | 45 | 286 | 1.7 | 4.3 | 0.00 | 0.00 | 0.00 | 69 | 1007.8 |
| 20260508125422 | 44 | 250 | 0.9 | 5.2 | 0.00 | 0.00 | 0.00 | 72 | 1007.9 |
| 20260508124921 | 44 | 264 | 2.6 | 5.2 | 0.00 | 0.00 | 0.00 | 71 | 1007.9 |
| 20260508124421 | 43 | 258 | 2.6 | 5.2 | 0.00 | 0.00 | 0.00 | 72 | 1008.0 |
| 20260508123924 | 42 | 247 | 1.7 | 4.3 | 0.00 | 0.00 | 0.00 | 72 | 1008.1 |
| 20260508123422 | 42 | 238 | 2.6 | 5.2 | 0.00 | 0.00 | 0.00 | 72 | 1008.0 |
| 20260508122920 | 41 | 292 | 2.6 | 5.2 | 0.00 | 0.00 | 0.00 | 74 | 1008.1 |
| 20260508122420 | 40 | 264 | 2.6 | 4.3 | 0.00 | 0.00 | 0.00 | 74 | 1008.0 |
| 20260508121918 | 40 | 271 | 2.6 | 5.2 | 0.00 | 0.00 | 0.00 | 75 | 1008.0 |
| 20260508121417 | 40 | 251 | 1.7 | 5.2 | 0.00 | 0.00 | 0.00 | 74 | 1008.0 |
| 20260508120415 | 39 | 288 | 3.5 | 6.1 | 0.00 | 0.00 | 0.00 | 75 | 1008.1 |
| 20260508115914 | 39 | 278 | 1.7 | 3.5 | 0.00 | 0.00 | 0.00 | 75 | 1008.0 |
| 20260508115416 | 39 | 299 | 0.9 | 2.6 | 0.00 | 0.00 | 0.00 | 76 | 1008.0 |
| 20260508114915 | 39 | 285 | 0.9 | 2.6 | 0.00 | 0.00 | 0.00 | 76 | 1008.0 |
| 20260508114415 | 38 | 289 | 1.7 | 3.5 | 0.00 | 0.00 | 0.00 | 76 | 1008.0 |
| 20260508113913 | 38 | 278 | 1.7 | 5.2 | 0.00 | 0.00 | 0.00 | 76 | 1007.9 |
| 20260508113413 | 38 | 248 | 2.6 | 5.2 | 0.00 | 0.00 | 0.00 | 76 | 1007.9 |
| 20260508112911 | 38 | 279 | 3.5 | 4.3 | 0.00 | 0.00 | 0.00 | 77 | 1007.8 |
| 20260508112411 | 37 | 282 | 1.7 | 3.5 | 0.00 | 0.00 | 0.00 | 77 | 1007.7 |
| 20260508111909 | 37 | 282 | 1.7 | 5.2 | 0.00 | 0.00 | 0.00 | 77 | 1007.7 |
| 20260508111410 | 37 | 268 | 1.7 | 5.2 | 0.00 | 0.00 | 0.00 | 78 | 1007.7 |
| 20260508110909 | 36 | 274 | 3.5 | 5.2 | 0.00 | 0.00 | 0.00 | 79 | 1007.7 |
| 20260508110408 | 35 | 233 | 2.6 | 4.3 | 0.00 | 0.00 | 0.00 | 79 | 1007.6 |
| 20260508105902 | 35 | 248 | 2.6 | 4.3 | 0.00 | 0.00 | 0.00 | 79 | 1007.7 |
| 20260508105403 | 35 | 252 | 2.6 | 4.3 | 0.00 | 0.00 | 0.00 | 79 | 1007.6 |
| 20260508104902 | 35 | 264 | 2.6 | 5.2 | 0.00 | 0.00 | 0.00 | 78 | 1007.6 |
| 20260508104403 | 35 | 244 | 2.6 | 5.2 | 0.00 | 0.00 | 0.00 | 78 | 1007.6 |
| 20260508103902 | 35 | 250 | 3.5 | 4.3 | 0.00 | 0.00 | 0.00 | 78 | 1007.6 |
| 20260508103645 | 35 | 251 | 3.5 | 5.2 | 0.00 | 0.00 | 0.00 | 77 | 1007.6 |
| 20260508102902 | 35 | 268 | 3.5 | 5.2 | 0.00 | 0.00 | 0.00 | 77 | 1007.5 |
| 20260508102403 | 35 | 250 | 2.6 | 5.2 | 0.00 | 0.00 | 0.00 | 77 | 1007.5 |
| 20260508101904 | 35 | 240 | 3.5 | 4.3 | 0.00 | 0.00 | 0.00 | 76 | 1007.5 |
| 20260508101403 | 35 | 230 | 2.6 | 4.3 | 0.00 | 0.00 | 0.00 | 76 | 1007.4 |
| 20260508100903 | 35 | 247 | 1.7 | 4.3 | 0.00 | 0.00 | 0.00 | 76 | 1007.4 |
| 20260508100403 | 36 | 250 | 1.7 | 6.1 | 0.00 | 0.00 | 0.00 | 76 | 1007.4 |
| 20260508095901 | 36 | 250 | 3.5 | 6.1 | 0.00 | 0.00 | 0.00 | 76 | 1007.5 |
| 20260508095402 | 36 | 240 | 3.5 | 6.1 | 0.00 | 0.00 | 0.00 | 76 | 1007.4 |
| 20260508094902 | 35 | 267 | 4.3 | 6.1 | 0.00 | 0.00 | 0.00 | 77 | 1007.5 |
| 20260508094400 | 35 | 244 | 4.3 | 6.1 | 0.00 | 0.00 | 0.00 | 77 | 1007.4 |
| 20260508093900 | 35 | 257 | 3.5 | 6.1 | 0.00 | 0.00 | 0.00 | 77 | 1007.5 |
| 20260508093400 | 35 | 234 | 3.5 | 6.1 | 0.00 | 0.00 | 0.00 | 77 | 1007.5 |
| 20260508092900 | 35 | 240 | 3.5 | 6.1 | 0.00 | 0.00 | 0.00 | 77 | 1007.6 |
| 20260508092400 | 35 | 231 | 3.5 | 6.1 | 0.00 | 0.00 | 0.00 | 77 | 1007.5 |
| 20260508091900 | 35 | 220 | 3.5 | 6.1 | 0.00 | 0.00 | 0.00 | 77 | 1007.6 |
| 20260508091350 | 35 | 244 | 2.6 | 6.1 | 0.00 | 0.00 | 0.00 | 77 | 1007.6 |
| 20260508091118 | 35 | 237 | 3.5 | 5.2 | 0.00 | 0.00 | 0.00 | 77 | 1007.7 |